Date,TemperatureHighF,TemperatureAvgF,TemperatureLowF,DewpointHighF,DewpointAvgF,DewpointLowF,HumidityHigh,HumidityAvg,HumidityLow,PressureMaxIn,PressureMinIn,WindSpeedMaxMPH,WindSpeedAvgMPH,GustSpeedMaxMPH,PrecipitationSumIn
2013-3-1,63.0,61.0,58.0,58.0,51.8,48.0,84,71,59,29.98,29.90,11,7,17,0.00
2013-3-2,64.0,57.2,52.0,50.0,43.2,36.0,75,59,44,30.03,29.95,20,11,37,0.00
2013-3-3,60.0,53.6,50.0,47.0,42.5,39.0,86,67,50,30.14,29.96,15,9,43,0.00
2013-3-4,68.0,53.1,43.0,49.0,38.6,32.0,93,61,27,30.21,30.11,16,7,26,0.00
2013-3-5,75.0,61.7,49.0,57.0,52.9,47.0,96,74,47,30.18,30.07,52,6,73,0.00
2013-3-6,75.0,63.4,52.0,62.0,52.3,34.0,97,71,35,30.09,29.94,17,10,29,0.00
2013-3-7,70.0,57.2,46.0,56.0,45.2,37.0,96,65,40,30.18,30.07,59,7,62,0.00
2013-3-8,75.0,61.0,50.0,55.0,50.3,43.0,97,72,31,30.20,30.09,37,6,83,0.00
2013-3-9,74.0,62.7,53.0,58.0,54.2,51.0,97,75,50,30.18,30.09,48,7,55,0.00
2013-3-10,74.0,68.4,58.0,60.0,56.4,53.0,94,66,50,30.16,30.06,14,9,23,0.00
2013-3-11,76.0,70.1,65.0,62.0,59.8,58.0,91,69,53,30.11,29.95,40,8,104,0.00
2013-3-12,79.0,71.5,65.0,68.0,64.5,61.0,91,78,65,29.99,29.90,16,8,89,0.00
2013-3-13,73.0,65.1,56.0,65.0,54.9,45.0,95,72,40,30.11,29.97,54,9,101,0.00
2013-3-14,70.0,59.8,52.0,55.0,46.9,40.0,96,66,37,30.20,30.08,54,12,79,0.00
2013-3-15,72.0,60.4,50.0,55.0,49.4,45.0,88,69,42,30.24,30.14,32,7,48,0.00
2013-3-16,75.0,63.7,53.0,58.0,54.2,51.0,98,74,45,30.19,30.08,48,8,62,0.00
2013-3-17,76.0,66.1,57.0,62.0,58.6,57.0,98,78,53,30.14,30.02,43,8,57,0.00
2013-3-18,79.0,70.0,62.0,70.0,64.8,61.0,98,84,64,30.07,29.95,16,7,32,0.00
2013-3-19,78.0,71.3,67.0,69.0,66.7,65.0,97,86,65,30.00,29.82,19,6,50,0.00
2013-3-20,81.0,71.5,64.0,69.0,64.6,57.0,99,80,54,29.97,29.80,18,5,41,0.00
2013-3-21,72.0,65.7,58.0,62.0,53.8,43.0,96,69,35,29.94,29.83,39,10,63,0.00
2013-3-22,75.0,66.7,55.0,69.0,59.7,53.0,96,79,58,30.00,29.89,13,6,31,0.00
2013-3-23,87.0,77.1,69.0,73.0,70.5,67.0,98,81,52,29.98,29.79,14,6,23,0.00
2013-3-24,87.0,77.9,71.0,73.0,71.4,68.0,97,81,57,29.88,29.68,24,12,40,0.00
2013-3-25,75.0,71.5,64.0,73.0,61.3,45.0,97,72,41,29.98,29.74,15,8,25,0.00
2013-3-26,64.0,59.2,52.0,47.0,41.6,37.0,66,52,39,30.20,29.98,17,13,28,0.00
2013-3-27,67.0,55.6,45.0,50.0,41.9,37.0,90,61,38,30.25,30.16,14,8,21,0.00
2013-3-28,72.0,58.9,47.0,51.0,45.3,36.0,92,64,33,30.26,30.16,11,6,18,0.00
2013-3-29,73.0,62.5,51.0,55.0,50.5,46.0,91,66,43,30.28,30.19,11,7,21,0.00
2013-3-30,74.0,64.8,54.0,57.0,53.0,49.0,96,68,42,30.25,30.15,48,6,48,0.00
2013-3-31,80.0,68.7,56.0,65.0,59.9,-99.9,98,77,54,30.18,30.03,14,7,32,0.00